Location: Kerbiquet
(47.9132°N, 3.5734°W)
Time: 00:37:42
(UTC+00:00)

Daily predictions for brighter satellites

Satellite Brightness Start Highest point End
(mag) Time Altitude Azimuth Time Altitude Azimuth Time Altitude Azimuth
CENTAUR R/B 3.9 03:44:24 36° ENE 03:44:24 36° ENE 03:48:36 10° NE
NOSS 3-2 (C) 4.2 04:12:49 46° ENE 04:12:49 46° ENE 04:17:29 10° NE
BREEZE-M DEB (TANK) 4.3 04:21:03 40° SE 04:21:03 40° SE 04:27:44 10° ESE
Cosmos 2344 3.5 04:34:44 66° NNW 04:34:44 66° NNW 04:42:20 10° NE
Cosmos 2369 Rocket 2.7 04:34:16 55° ESE 04:34:31 56° ESE 04:39:59 10° NE
USA 238 DEB 3.6 04:39:34 73° N 04:39:34 73° N 04:45:56 10° NE
USA 238 3.6 04:39:38 74° N 04:39:38 74° N 04:46:02 10° NE
COSMO-SKYMED 1 4.0 04:38:35 10° SE 04:42:31 35° ENE 04:42:51 34° ENE
USA 215 3.5 04:39:14 10° E 04:45:37 59° NNE 04:46:50 51° NNW
Cosmos 1943 Rocket 3.2 04:54:24 34° N 04:54:24 34° N 04:57:42 10° NNE
CZ-2C R/B 3.3 04:48:48 10° SE 04:54:06 53° ENE 04:57:37 20° N
Gblst 52 Del rocket 4.3 04:59:59 68° NW 05:00:22 70° NNW 05:07:07 10° ENE
Cosmos 1634 Rocket 3.8 04:58:14 39° NNW 05:00:46 83° W 05:06:59 10° S
Landsat 5 4.4 05:05:59 10° SE 05:10:20 51° ENE 05:12:32 26° N
SJ 16-02 3.9 05:08:54 10° SSE 05:12:12 21° E 05:15:30 10° NE
Tsikada Rocket 4.1 05:16:30 51° WNW 05:16:30 51° WNW 05:22:09 10° N
BREEZE-M DEB (TANK) 3.1 05:16:52 63° NE 05:16:52 63° NE 05:22:16 10° E
Cosmos 836 Rocket 4.5 05:21:10 59° WSW 05:21:10 59° WSW 05:26:05 10° S
CZ-4C R/B 3.8 05:23:22 10° SE 05:26:20 42° ENE 05:26:27 42° ENE
SKYMED 2 3.4 05:26:07 10° S 05:30:28 80° WSW 05:31:28 53° NNW
SJ-12 3.8 05:26:23 10° NNE 05:30:33 89° WNW 05:34:41 10° SSW
MOS 1-B Rocket 3.9 05:24:58 10° S 05:31:03 60° WSW 05:33:52 30° NNW
Cosmos 2278 Rocket 4.3 05:33:39 11° NNW 05:33:39 11° NNW 05:34:22 10° N
CENTAUR R/B 3.1 05:31:35 38° NW 05:32:46 41° NNW 05:39:46 10° NE
Cosmos 2180 Rocket 4.4 05:27:35 10° N 05:33:48 88° E 05:39:56 10° S
Cosmos 783 Rocket 4.5 05:31:02 28° NNW 05:33:53 82° ENE 05:39:05 10° SSE
Meteor 2-13 Rocket 4.5 05:31:15 10° SSW 05:37:12 53° WNW 05:43:09 10° N
Cosmos 1503 Rocket 3.9 05:33:38 10° SSW 05:38:56 87° WNW 05:44:19 10° NNE
ATLAS 5 CENTAUR R/B 3.1 05:36:05 10° S 05:39:31 32° ESE 05:43:19 10° NE
Meteor 1-27 Rocket 4.1 05:35:19 10° N 05:40:56 64° ENE 05:46:39 10° SSE
Cosmos 1151 Rocket 3.7 05:42:26 38° SW 05:42:26 38° SW 05:45:37 10° SSW
H-2A R/B 3.5 05:40:30 10° SE 05:44:26 36° ENE 05:48:29 10° N
Cosmos 1486 Rocket 4.2 05:44:08 33° WSW 05:46:02 48° WNW 05:51:09 10° NNE
SL-8 R/B 4.2 05:45:02 37° WSW 05:46:06 44° SSW 05:50:38 10° SE
Cosmos 773 Rocket 3.9 05:45:01 22° NNW 05:48:26 85° WSW 05:53:36 10° SSE
Lacrosse 4 Rocket 4.1 05:47:36 10° N 05:49:29 12° NNE 05:51:23 10° ENE
Meteor 2-6 Rocket 4.2 05:47:50 22° NNW 05:51:05 51° W 05:56:15 10° S
NOSS 3-2 (A) 4.4 05:51:40 27° NW 05:53:14 29° NNW 05:59:12 10° NE
Cosmos 1340 Rocket 3.9 05:51:13 10° S 05:55:00 46° E 05:58:52 10° NNE
Okean 3 Rocket 3.7 05:51:07 10° SSW 05:55:32 51° WNW 05:59:59 10° N
SL-27 R/B 2.3 05:54:53 44° NW 05:55:53 75° WSW 05:59:24 10° SSE
Cosmos 1766 Rocket 3.8 05:54:19 10° SSW 05:58:25 41° WNW 06:02:32 10° N
NOSS 2 (A) 4.2 05:59:54 67° N 06:00:07 73° NE 06:02:35 10° SE
NOSS 3-2 (C) 4.1 06:00:17 27° WNW 06:02:30 35° NNW 06:08:44 10° NE
ATLAS 3B R/B 3.4 05:56:34 10° SSW 06:02:52 54° ESE 06:09:29 10° NE
FALCON 9 DEB 4.0 06:03:14 28° N 06:03:18 28° N 06:05:51 10° ENE
Envisat 3.1 05:58:24 10° N 06:03:18 50° WNW 06:08:12 10° SW
Cosmos 1328 Rocket 4.0 06:02:40 32° WNW 06:03:40 37° W 06:07:39 10° SSW
DMSP B5D2-2 4.1 05:58:33 10° SSE 06:03:46 85° ENE 06:09:00 10° NNW
Cosmos 158 Rocket 4.2 06:04:36 10° NNW 06:09:44 70° ENE 06:14:58 10° SSE
Cosmos 2297 Rocket 3.4 06:08:19 10° NNW 06:13:36 38° NE 06:18:52 10° ESE
Cosmos 1939 Rocket 3.8 06:10:20 10° NNE 06:14:10 48° E 06:17:55 10° S
FALCON 9 DEB 4.1 06:13:36 28° NW 06:14:32 33° N 06:17:39 10° ENE
Cosmos 2098 Rocket 4.1 06:12:46 19° WSW 06:15:02 28° WNW 06:19:37 10° N
Cosmos 1174 3.3 06:13:28 10° SSW 06:16:25 69° ESE 06:19:34 10° NE
H-2A R/B 4.0 06:15:11 10° N 06:21:57 - SW 06:17:13 22° NW
COSMO-SKYMED 1 3.5 06:15:04 10° SSW 06:18:44 27° W 06:20:04 23° WNW
Cosmos 2369 Rocket 3.0 06:16:09 20° W 06:18:52 30° NW 06:23:46 10° NNE
Meteor 1-31 Rocket 3.3 06:15:39 10° N 06:19:14 35° WNW 06:22:48 10° SW
Cosmos 1607 4.1 06:17:00 13° NW 06:22:44 72° NE 06:28:52 10° SE
Cosmos 1656 Rocket 4.2 06:19:27 11° WSW 06:24:02 34° NW 06:29:00 10° NNE
Meteor 2-15 Rocket 4.5 06:19:11 10° NNW 06:25:08 57° W 06:31:02 10° S
CZ-4B R/B 2.6 06:22:20 10° SE 06:25:28 42° ENE 06:28:34 10° N
USA 215 3.4 06:22:14 10° SE 06:28:40 60° SW 06:34:10 15° WNW
Okean 1 4.0 06:25:08 10° N 06:29:01 54° ENE 06:32:53 10° SSE
Cosmos 1408 Rocket 3.9 06:26:47 10° SW 06:30:50 40° WNW 06:34:55 10° N
IRAS Rocket 4.4 06:28:41 10° S 06:34:03 54° WSW 06:39:27 10° NNW
CZ-2C R/B 3.7 06:30:13 10° SSW 06:34:39 25° W 06:39:03 10° NW
Cosmos 2263 Rocket 4.4 06:32:06 10° N 06:34:54 14° NNE 06:37:42 10° ENE
Cosmos 1943 Rocket 3.8 06:35:57 14° NW 06:37:12 14° NW 06:40:13 10° N
Nadezhda 4 Rocket 4.0 06:31:57 10° SSW 06:38:00 56° WNW 06:44:10 10° N
NOAA 12 4.0 06:33:03 10° NNE 06:38:21 83° WNW 06:43:36 10° SSW
Geosat FO 4.3 06:35:37 10° SSE 06:38:56 77° WSW 06:42:09 11° NNW
FengYun 1-2 T 4.3 06:34:16 10° NNE 06:39:47 83° ESE 06:45:17 10° SSW
Cosmos 1743 Rocket 3.6 06:36:17 10° SSW 06:40:36 58° WNW 06:44:55 10° N
Cosmos 2228 Rocket 3.1 06:37:10 10° NNW 06:41:39 73° W 06:46:10 10° S
Alouette 2 Rocket 3.4 06:41:48 10° NNW 06:45:24 46° W 06:48:52 10° S
Cosmos 2227 Rocket 3.0 06:44:03 10° NNW 06:49:33 49° NE 06:55:01 10° SE
SJ 16-02 1.6 06:46:17 10° SW 06:50:28 44° WNW 06:54:41 10° N
ADEOS 4.0 06:47:57 10° N 06:52:46 39° WNW 06:57:34 10° SW
Cosmos 1428 Rocket 4.4 06:49:18 10° SSW 06:55:27 78° W 07:01:36 10° N
Cosmos 1092 Rocket 4.0 06:49:22 10° SSW 06:55:36 69° W 07:01:56 10° N
Meteor 1-20 Rocket 4.2 06:51:19 10° SSW 06:56:52 66° WNW 07:02:34 10° N
Cosmos 1602 3.8 06:54:23 10° SSW 06:58:07 53° WNW 07:01:52 10° N
Meteor 1-19 Rocket 4.2 06:53:44 10° NNW 06:59:20 72° W 07:04:45 10° S
COSMOS 2487 3.2 06:56:57 10° NW 06:59:57 30° WSW 07:02:56 10° SSW
BREEZE M DEB (TANK) 1.7 06:58:20 10° WNW 07:01:18 77° SSW 07:03:19 10° ESE
CZ-4B DEB 4.5 06:56:57 10° NNE 07:02:27 76° ESE 07:07:53 10° S
CZ-4 R/B 4.3 07:02:51 10° NE 07:05:28 17° E 07:08:05 10° SE
Timation 1 Rocket 4.4 07:00:47 10° NNW 07:06:49 88° ENE 07:12:47 10° SSE
PSLV R/B 3.8 07:03:37 10° NNE 07:07:35 87° WNW 07:11:37 10° SSW
Cosmos 1500 Rocket 4.4 07:04:33 10° SW 07:08:30 30° WNW 07:12:29 10° N
GENESIS II 4.3 07:07:08 10° NW 07:11:03 65° SW 07:14:58 10° SSE
AQUARIUS 4.2 07:07:06 10° N 07:11:34 63° WNW 07:16:00 10° SSW
FALCON 9 DEB 3.5 07:09:15 10° NW 07:12:01 40° NNE 07:14:46 10° E
CZ-2C R/B 3.5 07:07:51 10° N 07:12:15 35° WNW 07:16:49 10° SW
SMAP 3.2 07:08:05 10° N 07:12:39 55° WNW 07:17:11 10° SSW
Sich 1 3.2 07:10:09 10° SSW 07:14:19 51° WNW 07:18:30 10° N
FALCON 9 DEB 3.1 07:11:42 10° WNW 07:14:30 49° NNE 07:17:17 10° E
FALCON 9 DEB 3.0 07:11:50 10° WNW 07:14:39 53° NNE 07:17:27 10° E
Meteor 2-21 4.5 07:10:40 10° SSW 07:16:48 66° WNW 07:22:56 10° N
